Location: Pagani
(40.7500°N, 14.6167°E)
Time: 05:33:55
(UTC+00:00)

Atlas Centaur 2 - Pass Details

Date: 15 May 2026
Orbit: 456 x 1246 km, 30.4° (Epoch: 6 June)

Event Time Altitude Azimuth Distance (km) Brightness Sun altitude
Exits shadow 23:57:27 18° 120° (ESE) 2,398 4.4 -28.6°
Drops below altitude 10° 23:59:45 10° 108° (ESE) 3,033 5.0 -28.5°
Sets 00:03:09 0° 98° (E) 4,080 5.9 -28.3°
